Change the Weather History Date:

Friday, February 15, 2013

  Actual Average Record
Temperature  
Mean Temperature 38 °F -  
Max Temperature 46 °F 35 °F 51 °F (2006)
Min Temperature 30 °F 20 °F -2 °F (2015)
Degree Days  
Heating Degree Days 27    
Moisture  
Dew Point 29 °F    
Average Humidity 77    
Maximum Humidity 87    
Minimum Humidity 57    
Precipitation  
Precipitation 0.00 in - - ()
Sea Level Pressure  
Sea Level Pressure 29.96 in    
Wind  
Wind Speed 4 mph (SW)    
Max Wind Speed 9 mph    
Max Gust Speed 21 mph    
Visibility 6 miles    
Events      
Averages and records for this station are not official NWS values.
T = Trace of Precipitation, MM = Missing Value Source: NWS Daily Summary

Daily Weather History Graph

Daily Weather History Graph

Search for Another Location

Airport or City:

Trip Planner

Search our weather history database for the weather conditions in past years. The results will help you decide how hot, cold, wet, or windy it might be!

Date:

Astronomy

Feb. 15, 2013 Rise Set
Actual Time 6:47 AM EST 5:26 PM EST
Civil Twilight 6:18 AM EST 5:54 PM EST
Nautical Twilight 5:46 AM EST 6:27 PM EST
Astronomical Twilight 5:14 AM EST 6:59 PM EST
Moon 9:17 AM EST (2/15) 11:30 PM EST (2/15)
Length of Visible Light 11h 36m
Length of Day
10h 39m
Waxing Crescent, 30% of the Moon is Illuminated
Feb 15
Waxing Crescent
Feb 17
First Quarter
Feb 25
Full
Mar 4
Last Quarter
Mar 11
New

Hourly Weather History & Observations

Time (EST) Temp. Windchill Dew Point Humidity Pressure Visibility Wind Dir Wind Speed Gust Speed Precip Events Conditions
12:15 AM 33.8 °F 30.8 °F 28.4 °F 81% 29.98 in 4.0 mi SW 3.5 mph - N/A   Clear
12:35 AM 32.0 °F 28.7 °F 26.6 °F 80% 29.98 in 3.0 mi SW 3.5 mph - N/A   Clear
12:55 AM 32.0 °F 28.7 °F 28.4 °F 87% 29.98 in 3.0 mi SW 3.5 mph - N/A   Clear
1:15 AM 32.0 °F 28.7 °F 28.4 °F 87% 29.98 in 2.5 mi SSW 3.5 mph - N/A   Partly Cloudy
1:35 AM 32.0 °F 28.7 °F 28.4 °F 87% 29.98 in 2.0 mi SW 3.5 mph - N/A   Scattered Clouds
1:55 AM 33.8 °F 30.8 °F 28.4 °F 81% 29.97 in 2.0 mi SSW 3.5 mph - N/A   Overcast
2:15 AM 33.8 °F 30.8 °F 28.4 °F 81% 29.97 in 2.0 mi SSW 3.5 mph - N/A   Overcast
2:55 AM 33.8 °F 30.8 °F 28.4 °F 81% 29.97 in 4.0 mi South 3.5 mph - N/A   Overcast
3:15 AM 33.8 °F - 28.4 °F 81% 29.97 in 7.0 mi Calm Calm - N/A   Overcast
3:35 AM 33.8 °F 30.8 °F 28.4 °F 81% 29.97 in 7.0 mi SW 3.5 mph - N/A   Overcast
3:55 AM 33.8 °F 30.8 °F 26.6 °F 75% 29.97 in 6.0 mi SSW 3.5 mph - N/A   Overcast
4:15 AM 33.8 °F 29.6 °F 26.6 °F 75% 29.97 in 7.0 mi SSW 4.6 mph - N/A   Overcast
4:35 AM 32.0 °F 27.5 °F 26.6 °F 80% 29.97 in 7.0 mi SSW 4.6 mph - N/A   Overcast
5:15 AM 33.8 °F 30.8 °F 26.6 °F 75% 29.98 in 6.0 mi SSW 3.5 mph - N/A   Clear
5:35 AM 30.2 °F 25.4 °F 24.8 °F 80% 29.98 in 5.0 mi SSW 4.6 mph - N/A   Clear
5:45 AM 32.0 °F - 26.6 °F 80% 29.98 in 5.0 mi Calm Calm - N/A   Clear
5:55 AM 32.0 °F 28.7 °F 26.6 °F 80% 29.98 in 5.0 mi SW 3.5 mph - N/A   Clear
6:15 AM 32.0 °F 28.7 °F 26.6 °F 80% 29.97 in 4.0 mi SSW 3.5 mph - N/A   Clear
6:35 AM 32.0 °F 28.7 °F 26.6 °F 80% 29.97 in 4.0 mi SW 3.5 mph - N/A   Clear
6:45 AM 32.0 °F - 26.6 °F 80% 29.98 in 5.0 mi Calm Calm - N/A   Clear
6:55 AM 32.0 °F 28.7 °F 26.6 °F 80% 29.98 in 3.0 mi SSW 3.5 mph - N/A   Clear
8:45 AM 37.4 °F 33.8 °F 28.4 °F 70% 30.00 in 7.0 mi WSW 4.6 mph - N/A   Clear
9:45 AM 39.2 °F 37.0 °F 28.4 °F 65% 30.00 in 7.0 mi WSW 3.5 mph - N/A   Clear
10:55 AM 42.8 °F 38.6 °F 30.2 °F 61% 29.99 in 7.0 mi SSW 6.9 mph - N/A   Clear
11:45 AM 44.6 °F 41.4 °F 30.2 °F 57% 29.98 in 7.0 mi South 5.8 mph - N/A   Clear
1:45 PM 46.4 °F 42.9 °F 32.0 °F 57% 29.94 in 7.0 mi SSW 6.9 mph 20.7 mph N/A   Clear
4:45 PM 44.6 °F 39.7 °F 32.0 °F 61% 29.93 in 7.0 mi SSW 9.2 mph - N/A   Clear
5:45 PM 42.8 °F 38.0 °F 32.0 °F 66% 29.93 in 7.0 mi South 8.1 mph - N/A   Clear
6:45 PM 39.2 °F 35.0 °F 32.0 °F 75% 29.93 in 7.0 mi South 5.8 mph - N/A   Clear
7:45 PM 37.4 °F 33.8 °F 30.2 °F 75% 29.93 in 7.0 mi SSW 4.6 mph - N/A   Clear
9:15 PM 35.6 °F - 30.2 °F 81% 29.93 in 8.0 mi Calm Calm - N/A   Mostly Cloudy
9:35 PM 35.6 °F 32.8 °F 28.4 °F 75% 29.93 in 5.0 mi SSE 3.5 mph - N/A   Overcast
9:55 PM 35.6 °F - 30.2 °F 81% 29.93 in 8.0 mi Calm Calm - N/A   Overcast
10:15 PM 37.4 °F - 32.0 °F 81% 29.92 in 9.0 mi Calm Calm - N/A   Overcast
10:35 PM 35.6 °F - 30.2 °F 81% 29.92 in 4.0 mi Calm Calm - N/A   Overcast
10:55 PM 37.4 °F 34.9 °F 32.0 °F 81% 29.93 in 8.0 mi NW 3.5 mph - N/A   Overcast
11:15 PM 37.4 °F 33.8 °F 30.2 °F 75% 29.93 in 8.0 mi NW 4.6 mph - N/A   Overcast
11:35 PM 37.4 °F 32.1 °F 30.2 °F 75% 29.91 in 9.0 mi NNE 6.9 mph - N/A   Overcast
11:55 PM 37.4 °F 33.8 °F 32.0 °F 81% 29.93 in 9.0 mi NW 4.6 mph - N/A   Overcast